Retour au catalogue

GEESAT 2-08

ActifCommunicationsLEO
NORAD 58912·PAYLOAD·🇨🇳 China

Lancé Feb 2, 2024 depuis Xichang Satellite Launch Center

Loading…

Prochains Passages (prochaines 24 heures)

TLE

FraisSource: Space-Track

Époque: Sep 14, 2026, 21:41 UTC

1 58912U 24023H   26257.90354845  .00001181  00000-0  16949-3 0  9999
2 58912  49.9900 297.5767 0004173 325.5953  34.4714 14.83430988142231

Suivez GEESAT 2-08 en temps réel avec AllMySat

Download on the App Store